Theta_e
335 335 334 332 332 333 333 332 332 333 331 330 329 327 322 321 315 312 310 311 310 310 310 306 308 310 310 311 311 308 307 308 307 306 306 311 306 308 309 308 311 310 310 309 308 308 308 308 308 309 309 310 310 310 309 309 310 310 310 311 311 310 309 308 308 309 309 310 310 309 309 308 308 308
334 334 334 333 332 332 332 332 332 331 331 328 327 326 325 323 318 315 311 311 313 311 309 308 306 308 309 312 311 311 310 311 308 307 306 308 308 308 306 306 307 309 308 308 306 307 307 308 307 308 309 309 310 309 310 310 310 311 311 311 309 308 307 308 309 309 309 309 309 309 308 308 308 308
333 332 331 332 331 332 332 331 331 330 329 329 327 326 325 323 322 319 316 309 315 317 309 307 308 307 308 310 310 311 310 311 310 306 305 307 312 309 306 306 305 306 306 305 306 309 308 308 308 308 309 309 309 309 309 310 310 310 309 308 307 307 307 307 308 309 310 310 310 309 308 308 308 308
333 331 330 330 330 331 330 330 331 329 329 329 326 324 324 321 320 319 315 312 313 313 310 310 308 308 309 309 309 308 308 309 312 304 306 308 312 307 304 307 306 305 304 304 304 306 306 306 307 309 308 309 310 310 310 310 308 308 306 305 305 305 306 307 308 309 310 310 310 310 309 308 307 307
330 331 330 330 330 331 330 329 328 324 325 325 325 324 320 318 318 317 315 310 311 312 315 313 309 310 307 305 307 306 306 304 305 307 305 309 305 305 306 306 306 304 304 304 304 303 303 304 307 309 309 309 309 310 306 304 305 306 306 304 304 304 305 306 306 306 308 309 310 309 308 307 307 307
329 328 327 327 328 329 327 325 324 324 323 322 320 319 319 315 316 317 316 313 310 307 310 308 308 307 310 304 306 305 305 303 304 304 305 309 307 307 307 306 304 304 305 304 303 303 302 301 302 302 303 302 302 303 302 301 301 302 304 301 299 301 302 304 305 307 308 309 309 309 308 307 307 306
329 328 327 326 326 329 325 325 323 323 320 319 317 316 314 314 314 315 313 309 308 308 309 310 306 307 308 306 304 304 306 307 307 304 304 304 309 309 307 307 306 303 303 304 303 302 302 301 301 301 301 301 301 301 301 301 301 301 301 300 300 301 302 302 304 306 308 308 308 308 307 307 307 307
328 326 325 325 325 325 323 322 321 320 319 317 315 314 313 313 315 314 312 312 314 310 308 307 306 308 306 306 305 305 305 306 304 304 304 305 306 307 311 308 307 304 303 303 303 303 302 302 302 302 302 302 302 302 302 301 301 301 300 300 301 301 301 301 302 302 305 305 305 305 305 305 306 308
327 326 324 324 324 323 320 319 318 317 316 314 313 311 310 309 313 315 313 313 312 310 308 308 309 308 306 307 303 303 303 304 305 305 306 306 304 305 305 309 311 306 305 303 303 302 302 303 302 302 302 302 302 302 302 302 301 302 301 301 301 301 301 302 303 303 303 303 303 304 305 306 307 308
327 325 323 323 323 321 319 318 317 315 314 312 311 310 309 309 313 314 312 312 312 310 309 307 307 307 304 303 303 302 302 303 303 303 305 305 305 305 306 307 311 307 304 303 304 303 302 302 303 303 303 302 302 302 302 302 302 302 302 302 301 301 301 301 301 302 301 302 302 303 303 303 305 306
326 324 323 322 322 320 319 318 316 314 312 312 311 311 311 311 313 311 309 308 307 306 307 306 305 305 307 306 303 302 305 304 303 302 302 303 306 307 304 306 308 309 310 307 306 307 306 306 305 304 303 303 303 303 302 302 303 302 302 301 300 299 299 299 300 301 301 302 301 301 300 299 300 303
325 323 322 322 321 320 319 318 315 315 312 311 311 310 311 314 311 308 307 305 304 305 306 305 303 305 303 303 306 309 305 302 303 304 303 301 303 304 308 307 306 309 308 308 310 308 306 305 306 304 303 304 304 304 304 304 305 304 303 301 301 300 300 299 300 301 301 302 301 300 299 300 301 301
324 322 321 321 320 321 322 318 316 316 315 312 310 310 312 310 308 305 305 306 305 305 305 305 306 303 302 302 302 303 301 301 300 307 305 304 304 303 304 306 307 307 306 308 309 310 309 307 307 307 306 306 307 308 308 307 307 305 302 301 300 300 300 300 301 301 301 301 301 300 300 300 300 299
322 321 320 321 322 319 317 313 309 307 309 313 314 311 311 308 306 304 304 304 305 304 302 303 303 302 302 302 303 303 304 304 306 304 303 300 302 304 303 305 306 311 308 305 303 307 308 307 306 307 305 307 307 305 306 304 304 302 300 300 300 299 299 300 300 300 300 300 300 300 300 299 299 298
320 319 319 319 320 317 315 310 303 301 300 300 304 308 311 313 307 305 305 304 305 303 304 305 303 302 302 304 305 304 305 306 305 303 303 304 303 300 299 298 303 313 303 304 302 302 306 307 305 306 306 306 305 307 306 303 302 301 300 300 300 300 300 300 300 300 299 299 299 299 299 298 298 298
319 318 317 318 316 314 311 307 304 302 299 297 297 296 297 296 295 300 309 308 305 305 304 302 302 304 304 304 305 304 303 305 304 304 302 301 300 300 300 300 299 306 306 303 301 301 305 308 307 305 307 306 306 307 303 302 301 301 300 300 299 300 300 300 300 299 299 299 299 299 299 298 297 296
318 317 317 315 314 313 312 311 307 304 301 300 299 299 299 298 296 293 293 296 310 311 308 305 305 305 305 303 306 307 306 308 306 306 303 303 303 302 302 302 300 302 306 303 301 300 304 305 303 302 305 305 304 306 303 302 301 300 299 299 300 300 299 299 299 299 299 299 299 299 299 298 297 297
318 317 316 313 312 312 310 309 308 306 304 302 303 305 306 305 301 297 297 297 298 306 313 309 307 308 310 310 310 309 308 305 303 302 301 304 303 302 301 302 301 303 306 302 301 300 301 302 303 300 301 303 303 303 303 301 301 300 300 300 300 299 299 299 298 298 298 298 298 298 298 297 296 296
318 317 317 314 312 311 310 310 309 307 305 304 305 304 306 307 307 307 309 310 311 311 315 312 309 309 311 312 309 308 308 307 306 306 305 303 303 302 301 301 303 304 306 305 302 299 298 302 299 299 300 302 301 301 301 301 301 301 301 300 299 299 299 299 298 297 298 298 298 296 295 295 295 296
318 317 316 314 312 312 310 307 301 304 305 303 303 304 303 304 306 308 308 300 303 311 311 308 305 301 298 301 304 306 309 307 308 307 306 305 303 301 300 299 303 303 306 305 302 300 299 301 300 298 300 300 299 301 301 301 302 301 300 300 299 299 299 299 298 297 298 298 296 296 295 295 295 296
317 317 316 315 313 312 310 303 297 299 303 303 303 303 303 304 304 305 304 296 294 294 293 293 293 292 292 293 293 293 295 301 302 300 297 298 300 299 297 299 298 300 301 305 304 301 298 300 298 298 299 299 299 299 300 301 301 301 300 300 300 300 300 299 298 298 298 297 295 295 296 295 296 297
317 316 316 317 314 311 309 297 296 297 303 304 303 303 302 301 302 305 307 305 302 294 293 293 292 293 292 292 292 292 292 294 301 301 295 299 299 298 297 295 297 299 300 305 305 300 299 299 299 298 299 299 300 300 299 300 300 301 300 300 300 300 300 299 298 298 299 297 296 296 296 296 297 297
315 315 314 314 312 311 305 295 296 296 304 306 304 303 301 299 301 304 306 304 303 302 302 301 301 299 297 301 302 301 293 295 302 303 301 301 298 296 296 298 297 297 299 301 305 298 298 297 298 297 296 295 296 300 300 299 299 300 300 301 302 301 300 299 298 298 298 297 297 297 296 296 296 296
313 314 313 309 301 300 296 295 295 296 300 306 305 303 301 300 302 306 307 305 304 303 302 302 303 303 303 302 303 305 297 299 303 303 301 300 300 298 298 298 296 295 296 304 305 299 299 299 297 299 297 293 292 295 298 298 299 300 300 301 300 300 300 300 300 300 300 297 296 295 297 296 296 295
313 312 312 311 299 295 295 295 295 296 297 301 305 304 302 302 304 304 307 306 307 305 302 302 303 302 302 302 302 302 303 301 301 300 300 301 301 300 298 296 298 297 298 303 300 300 297 298 297 297 297 296 296 296 296 297 299 298 300 301 300 299 299 300 300 300 300 297 295 296 296 296 296 296
312 312 312 308 298 295 295 296 296 296 296 297 306 304 299 298 298 306 309 308 306 306 303 301 301 301 300 300 300 300 300 302 303 301 301 301 301 301 301 299 297 296 298 304 301 301 299 299 299 297 297 295 296 295 293 294 298 299 300 300 300 299 300 300 300 300 299 301 297 295 296 296 296 296
312 313 311 306 297 294 295 295 296 296 296 296 303 296 294 295 295 300 305 306 306 304 303 302 300 301 301 300 299 300 300 302 303 304 303 303 302 302 302 303 303 302 303 305 305 304 301 299 300 297 297 297 294 293 294 294 295 298 299 299 298 298 300 299 299 299 299 300 299 297 297 296 296 295
313 312 309 301 294 294 295 295 295 295 296 299 291 291 293 293 296 303 302 304 305 302 300 301 301 301 301 301 301 301 302 303 305 306 306 306 305 303 303 303 303 304 304 305 304 302 302 301 301 300 299 297 295 293 292 294 295 296 297 299 298 299 299 299 299 299 299 300 298 297 295 294 295 295
312 304 299 294 293 294 294 294 294 294 295 293 291 292 291 298 300 301 300 302 305 302 300 299 300 301 301 302 302 304 303 304 305 305 306 307 307 306 306 306 306 305 306 306 304 304 303 302 302 301 300 299 295 295 295 294 294 295 296 295 294 297 297 299 299 298 298 299 297 295 294 293 293 294
298 295 294 293 293 293 294 296 298 298 297 292 292 291 294 302 300 300 300 300 301 300 300 299 298 298 299 299 302 304 305 304 303 303 304 303 304 305 304 303 302 303 304 304 303 303 303 303 303 303 301 299 297 296 295 293 294 296 295 294 295 297 296 298 298 298 298 298 298 296 295 294 294 294
299 296 296 296 295 296 294 295 296 297 294 294 296 297 300 302 301 301 299 299 300 299 298 298 299 299 300 302 301 301 301 302 302 302 302 301 302 304 301 300 300 301 304 305 306 305 305 304 305 304 298 298 297 297 297 297 295 294 294 295 295 293 295 297 298 297 298 298 298 296 296 295 294 295
301 300 296 295 298 297 297 298 299 298 296 296 296 298 299 301 301 301 300 300 301 302 302 301 300 299 300 299 300 300 300 300 300 301 300 301 300 299 299 298 298 300 301 303 305 305 302 304 307 303 299 296 294 296 296 297 296 294 293 294 295 295 296 296 296 297 298 298 296 296 295 293 292 293
301 299 298 298 297 297 297 296 298 297 295 295 295 298 298 299 299 299 299 300 301 302 303 302 302 302 300 298 299 297 298 300 300 302 301 302 301 300 299 298 298 298 298 299 302 303 308 306 305 305 301 299 299 298 296 293 293 294 292 293 294 294 295 295 295 296 298 296 295 295 293 294 294 293
300 300 299 298 297 297 298 297 296 297 296 295 294 295 294 296 296 297 298 301 302 303 303 303 302 302 300 299 298 297 296 299 301 301 299 301 301 298 298 298 299 300 298 297 298 300 301 302 305 304 303 301 305 304 297 290 291 293 295 294 294 293 295 296 295 296 297 295 295 293 294 293 292 293
298 297 296 296 298 297 299 297 297 297 296 293 293 294 295 297 296 294 298 301 298 297 298 299 301 299 300 299 297 298 296 299 299 299 297 298 301 299 297 297 297 297 297 298 297 298 298 299 301 298 298 299 302 300 299 298 294 293 295 294 295 295 295 295 294 295 296 296 295 292 291 292 293 293
297 298 297 296 297 298 298 296 296 298 298 296 296 296 294 296 297 297 298 301 302 301 301 295 295 297 300 300 297 298 297 293 299 299 299 299 297 297 298 298 298 298 297 296 295 297 299 298 297 294 293 292 290 285 290 300 298 295 293 291 294 295 295 294 295 295 295 294 294 292 288 289 290 292
297 299 300 300 300 299 297 298 298 299 300 299 299 299 297 296 298 301 302 299 303 300 302 299 296 295 295 294 293 291 292 293 292 297 297 300 300 299 297 293 293 297 296 298 298 297 300 299 296 295 293 287 286 286 286 291 295 297 297 294 292 296 293 294 293 292 292 293 293 292 290 290 290 292
298 302 302 301 301 301 300 299 298 299 300 300 301 301 301 300 301 302 304 303 302 298 299 300 296 296 298 294 293 292 293 294 294 292 292 296 293 292 293 293 293 297 297 297 298 299 299 297 296 295 293 286 287 286 286 286 288 292 299 299 292 291 293 291 289 288 290 292 292 291 291 289 288 291
302 302 301 301 302 301 300 300 299 300 301 302 301 302 302 303 302 302 301 302 303 302 302 301 298 297 296 298 294 292 291 291 291 291 291 294 295 294 293 292 292 295 296 294 297 298 299 298 296 296 296 292 287 287 288 288 287 287 295 298 297 292 288 291 288 289 292 287 290 291 290 292 293 293
303 303 303 302 303 303 302 302 301 302 302 303 303 303 303 303 303 303 302 301 301 303 303 300 298 297 297 298 293 294 295 297 294 292 292 291 291 293 293 291 292 294 293 293 292 295 296 298 297 296 294 294 289 291 290 290 289 290 292 297 293 296 293 293 290 289 287 291 292 285 285 287 286 288
303 303 304 304 304 303 303 303 303 303 303 304 304 301 304 305 305 304 304 303 299 299 297 297 299 298 294 297 296 293 291 291 293 295 294 291 290 290 290 290 291 293 293 289 292 294 295 298 298 295 298 297 295 299 290 287 287 288 288 288 293 293 292 294 296 290 287 290 289 286 285 285 286 285
304 304 305 304 303 305 304 305 305 305 305 304 304 304 304 305 303 299 299 297 303 297 297 297 297 296 295 295 294 292 292 290 291 291 291 290 290 289 289 289 289 290 291 289 289 292 297 301 293 294 298 297 293 290 287 288 287 286 288 288 288 292 291 291 291 295 293 291 288 285 285 284 284 284
303 305 305 304 304 305 307 305 306 306 305 305 305 305 304 303 301 300 297 297 298 297 297 295 296 296 295 294 294 293 292 291 290 290 291 291 291 290 289 289 289 290 292 290 293 297 295 299 298 297 292 291 290 290 287 287 288 288 288 287 288 289 287 291 289 290 290 289 291 290 289 287 285 284
305 306 306 307 307 307 309 308 307 307 307 307 306 306 302 299 297 299 297 297 296 294 296 296 295 295 295 295 294 293 293 292 291 291 291 290 290 290 289 288 289 290 290 290 290 291 291 292 292 293 291 289 289 290 287 287 288 290 289 288 287 287 288 286 286 288 288 289 290 290 290 289 290 291
305 306 307 307 307 308 308 308 307 307 307 306 305 305 300 300 298 298 299 297 295 294 294 294 295 294 294 294 294 293 291 293 292 292 292 291 291 290 288 289 288 288 288 289 291 290 290 291 290 292 291 290 290 290 290 290 288 288 289 288 287 287 289 288 288 287 286 286 289 290 290 290 289 290
Wind_Speed
6 5 6 6 5 3 3 3 4 4 2 2 2 3 4 5 5 2 4 7 4 8 8 6 5 5 7 7 7 8 6 8 9 5 5 4 6 10 12 11 11 10 9 9 9 10 10 10 10 11 12 13 13 14 14 13 13 14 14 15 15 15 13 13 13 13 14 16 17 16 17 19 20 20
5 4 3 3 3 3 3 3 3 3 4 5 4 5 5 4 5 5 4 2 2 2 5 5 6 5 7 8 6 6 5 12 11 6 6 4 7 12 13 13 11 11 9 9 9 9 10 11 12 12 13 14 14 14 14 14 15 15 15 15 15 13 14 13 14 14 15 15 16 17 18 19 20 20
5 5 6 5 5 4 4 4 5 5 6 6 6 6 3 1 1 1 0 1 1 0 3 3 6 7 6 8 7 5 5 10 9 6 4 4 10 15 12 14 13 11 10 10 9 9 10 11 12 13 13 14 15 16 15 15 14 14 14 13 13 13 13 14 14 15 16 17 18 19 20 20 21 21
6 8 8 8 6 6 7 7 6 8 6 5 4 3 3 2 0 1 1 0 2 5 2 4 5 10 4 8 8 4 5 8 10 5 5 4 10 9 7 13 14 12 11 11 11 11 12 12 11 11 12 14 15 16 15 14 14 12 14 14 13 13 12 13 14 16 17 17 18 19 20 20 21 20
5 6 10 10 9 9 9 8 6 5 3 2 3 2 2 2 2 1 1 2 2 3 2 3 4 4 6 4 6 7 6 7 6 6 4 6 7 7 8 8 14 13 11 11 12 12 12 12 10 10 12 13 14 15 15 14 14 11 14 15 14 14 12 14 13 14 16 17 18 19 19 20 20 20
7 6 6 7 10 11 8 4 3 4 4 4 3 2 3 3 3 4 2 2 3 2 1 5 4 4 3 3 4 4 8 6 6 5 5 5 9 7 7 5 6 13 11 13 13 13 14 13 12 12 13 14 14 15 15 15 15 15 16 15 13 14 15 14 13 14 15 16 17 17 18 19 19 19
7 6 4 5 5 2 4 3 3 3 3 3 4 4 4 4 4 4 4 4 3 7 3 4 4 3 3 4 4 6 6 8 7 6 6 5 5 6 5 6 5 13 14 14 13 14 15 14 12 13 14 15 15 15 16 16 16 16 16 14 13 15 15 16 14 15 17 17 16 17 17 18 19 19
7 7 6 6 6 4 4 4 3 3 5 5 5 5 4 4 4 3 5 5 2 4 5 3 4 5 5 4 3 3 5 5 3 2 4 4 4 2 3 4 7 11 17 14 15 15 16 13 13 15 16 15 15 16 16 16 16 17 17 13 13 15 16 16 17 17 15 17 17 17 17 17 19 20
7 7 7 7 7 5 6 5 5 5 5 5 4 5 4 5 4 3 4 4 6 6 5 4 4 5 4 3 4 4 5 5 5 4 6 4 3 4 5 4 4 11 17 18 17 16 16 13 14 15 15 16 16 17 18 17 16 17 17 13 14 16 16 17 18 17 17 18 19 17 17 17 19 21
6 4 6 7 8 6 8 7 5 4 5 4 4 5 5 4 4 4 4 6 6 7 6 7 5 4 6 4 3 4 4 4 4 4 5 5 4 3 2 2 3 5 7 6 8 11 12 12 14 15 16 17 18 19 19 16 16 17 15 14 15 15 16 16 16 17 17 18 19 19 19 19 17 21
7 7 7 7 7 7 7 6 6 5 5 5 5 5 5 4 6 6 4 4 4 4 3 4 5 4 3 3 4 3 1 3 1 0 3 2 3 4 5 5 5 3 5 11 14 10 9 9 7 11 14 15 17 18 18 16 17 17 14 14 15 15 15 15 16 17 18 18 19 19 19 19 20 19
7 7 7 7 6 7 7 6 6 6 7 5 5 5 4 5 7 6 5 4 5 5 4 3 4 3 3 2 1 0 3 2 0 2 2 2 1 3 1 1 3 3 5 5 4 6 6 7 10 12 12 14 16 16 16 16 17 14 13 14 14 14 14 15 16 17 18 19 19 19 19 20 21 17
6 6 7 7 6 7 9 10 8 7 7 6 6 5 4 6 6 5 5 5 5 5 4 4 4 4 4 4 5 3 2 3 4 3 3 0 1 2 5 4 3 4 5 1 0 2 3 5 6 5 6 7 8 8 11 9 12 13 13 13 13 12 13 16 17 18 19 20 20 20 20 21 20 12
6 7 6 6 10 12 12 12 12 11 9 5 5 5 5 6 5 6 5 5 5 5 5 4 5 5 5 5 6 4 4 4 3 4 2 1 4 3 3 3 4 1 3 3 3 3 3 4 6 6 6 6 5 6 6 4 8 10 11 11 11 13 15 17 18 19 19 20 20 20 21 20 14 9
8 6 7 5 8 11 9 9 12 11 10 8 7 8 7 5 4 5 4 4 4 5 5 4 4 5 5 5 6 6 5 5 3 2 0 1 0 2 2 3 4 1 4 1 1 4 4 5 7 6 5 4 5 5 5 12 12 11 12 12 13 14 16 18 19 19 19 19 20 20 21 15 10 7
7 7 7 5 6 6 9 8 9 10 11 11 10 10 11 10 10 6 2 4 4 4 4 5 5 4 4 4 5 5 4 4 3 2 1 1 2 3 3 3 2 2 3 3 3 6 6 6 7 4 3 4 4 5 10 12 13 15 13 12 13 15 18 19 19 19 19 19 19 20 17 11 8 6
8 7 7 6 6 7 15 11 9 8 8 9 11 10 10 9 9 7 8 7 2 0 4 4 4 4 4 4 3 4 4 3 3 2 2 3 4 3 1 1 2 6 2 3 3 5 7 5 2 3 4 3 4 6 8 12 16 14 11 12 16 18 18 19 18 17 17 18 18 19 13 9 6 7
10 9 8 8 7 8 9 8 10 8 8 7 6 5 4 4 5 6 5 5 7 6 2 2 1 2 3 1 2 4 5 4 2 2 1 0 2 3 1 2 4 6 5 5 2 3 7 4 3 4 4 4 5 5 8 15 13 10 13 16 18 18 18 18 17 17 17 17 17 14 9 6 5 10
10 10 9 9 9 9 9 8 10 9 8 7 6 4 4 4 4 3 3 2 2 1 2 5 5 4 3 5 6 4 5 5 2 2 1 1 1 1 3 4 5 8 8 7 3 5 5 2 4 4 5 5 6 5 8 11 12 14 16 16 16 16 19 18 16 16 15 16 14 8 7 5 10 12
10 10 10 9 10 9 10 11 15 12 9 7 7 6 4 4 4 3 3 7 6 5 4 4 4 3 4 6 6 5 4 3 2 2 0 1 2 3 3 6 6 5 3 0 1 1 3 3 3 5 5 4 6 6 5 8 11 14 16 16 15 18 21 18 15 15 15 14 9 8 6 9 12 12
9 10 11 10 10 10 10 13 16 15 13 7 8 7 6 5 5 5 4 7 10 11 11 11 10 9 8 8 9 11 11 6 4 5 3 1 2 3 3 3 3 3 3 3 3 2 3 2 3 5 6 4 5 5 5 4 8 14 16 14 15 17 18 16 16 15 15 9 9 8 8 11 12 13
9 10 16 13 11 10 10 15 16 16 13 9 9 8 8 8 7 6 6 4 3 6 9 9 9 9 7 7 7 7 7 6 4 4 3 2 2 3 2 3 3 3 4 0 1 1 1 4 3 4 6 6 3 3 3 5 7 13 12 13 14 16 15 17 18 15 13 8 9 8 10 12 12 9
8 9 12 16 12 11 13 19 17 17 14 9 9 9 9 9 8 7 7 6 6 4 3 2 3 1 2 3 3 3 6 6 4 3 3 1 2 3 3 3 3 4 0 1 1 2 2 4 4 4 4 4 5 1 2 4 6 9 7 7 10 13 15 17 17 15 13 8 9 7 10 13 10 8
8 8 9 12 16 18 20 20 19 18 17 10 9 9 9 9 10 8 10 9 6 6 6 5 4 4 4 4 4 3 4 3 4 4 4 4 3 3 3 3 3 3 2 1 1 2 2 1 6 4 4 4 4 3 3 6 7 7 5 10 9 10 12 14 13 15 15 7 8 6 10 13 13 9
10 9 10 9 13 20 22 21 21 19 15 12 10 9 9 8 7 9 8 10 11 6 7 5 5 5 4 4 5 5 5 5 5 5 5 5 5 5 5 5 5 4 4 2 2 4 3 3 6 4 4 2 3 4 4 4 6 5 7 10 9 7 6 10 9 9 14 5 10 8 10 14 15 9
9 10 10 9 15 22 22 22 21 19 15 14 10 11 12 13 14 10 7 8 7 6 6 6 5 6 5 6 5 5 6 6 7 7 6 7 7 7 6 6 5 4 5 4 7 4 4 4 5 4 5 3 4 3 5 5 4 5 8 8 7 6 8 9 8 10 8 9 5 3 9 11 14 13
11 10 10 12 20 22 23 22 21 18 17 10 5 11 13 14 15 11 6 8 7 6 7 7 6 7 7 6 6 6 7 7 8 8 8 8 8 8 8 7 6 7 7 6 6 6 5 6 5 4 5 4 4 4 4 4 5 6 8 7 5 5 8 6 9 9 9 10 4 3 7 10 13 12
10 10 11 15 22 22 22 21 20 19 16 9 10 10 13 13 12 7 7 7 7 6 6 7 7 7 6 6 6 8 8 8 8 9 9 9 10 9 8 9 8 8 8 8 7 5 5 6 7 6 4 3 3 3 5 5 6 6 7 7 5 7 7 6 9 10 9 10 4 3 7 8 8 11
10 12 18 22 21 21 20 21 20 17 16 14 12 11 11 10 6 6 6 5 7 7 7 6 6 5 6 6 7 7 7 8 7 6 7 7 9 9 8 8 7 6 6 6 7 7 7 7 8 5 4 2 3 4 3 6 5 6 5 5 6 8 6 6 9 10 9 10 3 5 7 6 9 9
16 20 21 21 21 20 18 15 11 10 10 12 13 11 9 5 6 5 6 3 6 6 5 6 6 6 5 5 5 4 4 4 5 6 6 5 4 5 4 4 6 6 8 9 10 10 9 8 5 6 8 4 4 4 5 5 5 6 5 5 6 7 4 8 9 9 9 10 8 5 3 6 7 9
13 18 18 15 17 15 19 17 15 12 11 9 8 6 5 5 5 5 5 4 5 6 5 5 6 6 6 6 6 6 5 4 3 3 3 5 4 4 6 6 6 6 7 8 10 11 11 9 8 7 4 3 4 5 7 2 4 4 5 7 7 6 6 7 8 9 10 8 9 3 3 5 7 6
14 14 13 14 10 10 9 8 7 7 7 7 8 6 6 5 4 6 6 6 4 5 6 4 5 4 5 5 4 4 6 7 6 4 4 3 3 3 3 3 5 5 5 6 7 6 7 5 3 5 4 3 4 6 2 2 2 4 6 7 7 6 6 6 7 9 9 9 9 7 5 6 6 8
10 10 11 10 10 10 11 10 9 8 8 7 7 8 7 5 5 5 5 6 7 6 5 6 6 6 5 5 4 4 4 5 6 6 6 5 6 5 5 7 4 3 6 8 7 6 2 4 5 5 4 5 7 2 1 1 4 3 5 7 5 6 6 7 6 7 9 8 8 9 3 4 5 7
12 11 11 10 10 11 11 11 11 11 10 10 9 8 9 8 7 6 6 6 6 6 6 5 5 4 3 3 4 5 5 4 7 6 7 5 7 7 7 4 3 5 6 5 6 5 2 2 1 3 4 3 2 4 6 5 4 5 5 5 5 5 6 6 6 6 7 6 9 8 9 3 3 5
13 12 11 11 11 11 11 11 12 11 11 9 9 9 9 8 9 7 7 7 5 6 6 6 4 4 4 5 5 5 6 6 4 6 5 6 6 6 4 2 5 6 4 4 3 3 4 4 1 1 1 3 2 3 4 4 4 4 5 4 3 4 6 5 6 6 5 7 7 7 8 5 5 5
13 13 13 12 12 12 11 11 11 11 11 11 10 9 8 9 8 9 9 8 7 6 7 6 5 5 5 7 6 4 2 3 4 5 5 6 7 7 6 7 6 4 2 4 5 5 3 3 1 2 3 3 2 3 3 5 1 0 1 3 4 3 4 4 4 4 6 6 7 6 6 7 5 6
13 12 12 11 10 11 10 11 11 11 10 11 10 10 9 9 9 9 9 9 9 7 7 7 6 6 5 4 3 3 4 4 4 3 1 2 2 2 1 1 3 5 4 5 6 7 2 1 1 2 3 6 4 2 5 3 7 6 3 1 2 3 4 4 5 6 5 6 7 6 6 6 5 4
13 13 13 13 13 12 11 11 10 10 10 10 10 10 10 10 10 10 8 9 9 8 8 8 6 7 6 5 4 3 3 5 4 2 2 2 1 0 1 1 4 4 4 5 5 5 2 1 1 4 7 4 1 2 5 5 3 4 4 3 1 3 3 4 6 5 5 6 6 6 6 7 4 6
11 13 14 13 13 13 12 12 11 11 11 10 10 10 10 10 10 11 10 10 9 8 7 7 7 8 7 7 6 5 5 3 3 3 4 3 2 2 2 3 5 5 4 5 5 6 2 3 4 5 4 4 1 3 3 3 5 5 3 7 2 1 3 2 3 3 4 5 5 5 4 4 3 5
11 9 10 11 11 12 11 11 11 11 11 10 11 10 10 9 10 11 11 10 8 8 7 7 5 8 8 7 6 5 5 5 4 4 5 4 3 3 4 4 5 4 1 1 3 3 4 1 5 4 4 6 3 7 7 6 3 0 1 7 8 3 2 1 1 1 1 3 3 4 6 6 6 6
11 12 9 10 10 11 11 11 11 11 10 10 10 10 10 10 9 9 9 10 8 7 7 6 7 7 7 7 7 7 6 6 5 5 5 5 5 6 7 6 2 0 1 3 3 4 4 3 6 7 4 4 5 1 3 5 1 1 2 3 9 8 1 4 1 2 1 2 2 3 3 4 4 5
11 11 10 12 13 9 9 10 10 11 10 10 9 9 8 8 8 10 10 11 11 7 6 7 7 7 7 7 7 6 6 7 6 7 5 4 4 5 6 4 2 1 1 4 4 5 5 2 5 2 0 0 1 1 3 0 2 2 1 3 3 1 3 3 3 1 1 1 1 2 2 3 2 4
9 10 10 8 8 9 11 12 10 10 11 10 10 9 8 7 7 7 5 5 8 8 7 6 8 8 7 6 6 6 6 6 6 6 5 5 5 6 5 4 4 4 5 5 5 6 6 3 5 4 1 1 1 1 3 3 2 0 3 3 4 1 2 4 1 2 3 3 4 3 2 1 2 5
9 10 11 10 10 11 8 11 11 9 10 9 10 8 6 6 6 6 6 6 7 7 8 7 7 8 8 7 7 6 7 7 6 6 6 5 6 7 5 4 4 5 5 6 7 7 7 6 2 1 0 4 2 1 4 5 2 0 1 2 3 2 2 4 3 5 6 7 9 8 8 7 9 8
12 11 11 10 9 11 8 8 8 7 9 9 9 8 7 7 7 7 6 6 6 6 7 7 6 6 6 7 7 7 6 6 6 6 6 6 5 6 4 4 4 4 4 4 3 4 3 1 2 1 1 0 0 0 1 1 2 2 1 1 3 3 1 1 1 3 4 6 9 11 10 10 11 12
Wind_Direction
199 195 199 211 215 218 216 210 204 190 206 234 240 220 210 212 229 229 230 249 186 186 152 155 173 168 138 120 119 125 142 162 170 193 212 185 176 188 195 211 224 224 225 236 241 248 254 260 265 271 275 279 283 288 292 292 293 291 291 292 295 298 299 298 292 291 295 299 303 305 306 309 310 311
175 185 199 204 217 215 227 214 203 204 201 196 208 233 239 224 221 232 239 267 205 164 167 142 148 163 138 123 129 143 145 168 177 188 201 196 170 182 194 211 219 217 217 230 238 244 251 257 265 271 275 278 281 284 285 286 286 287 288 291 293 291 291 288 288 290 293 295 299 305 308 310 312 313
179 192 205 198 204 216 230 227 208 209 203 204 213 229 222 264 236 168 46 277 303 87 152 130 148 153 143 144 137 158 145 172 181 190 193 225 166 183 198 208 216 209 209 230 238 238 244 247 254 264 270 273 278 282 282 282 282 283 284 284 285 285 286 288 288 291 295 297 301 307 310 310 311 312
193 192 199 201 202 204 216 222 217 209 210 200 207 216 197 216 333 27 125 72 24 346 95 117 101 143 133 132 139 177 147 179 185 186 204 189 161 182 203 211 215 204 200 225 235 240 247 250 253 257 264 269 275 278 279 278 279 275 278 279 280 283 283 284 287 291 295 297 298 302 305 306 306 305
215 200 198 199 203 202 213 221 199 151 159 151 192 222 209 206 227 172 161 151 101 356 48 76 95 100 109 145 153 181 150 171 197 215 213 167 172 189 209 203 209 201 203 222 233 238 245 249 250 255 263 270 271 273 275 276 276 267 272 277 280 286 287 287 286 287 290 291 292 297 299 299 299 296
203 221 229 213 201 201 201 187 180 152 165 179 171 224 224 198 217 193 151 156 135 169 83 99 88 104 129 173 190 198 146 181 186 203 225 187 188 203 217 169 186 199 204 222 230 236 240 241 248 255 260 262 264 266 267 269 272 271 270 274 281 285 285 283 281 282 284 284 285 288 290 291 290 288
203 204 212 244 257 213 195 166 169 167 186 196 192 201 213 218 196 182 148 158 190 158 176 127 134 154 195 199 209 192 156 176 177 191 213 222 195 208 200 155 185 193 209 215 227 233 236 237 244 252 255 257 260 262 264 265 267 269 271 273 277 279 280 283 283 283 284 282 281 281 282 282 283 283
204 193 201 219 234 226 187 171 189 201 183 195 185 195 207 208 193 189 168 173 144 148 138 193 163 179 165 202 259 234 160 145 172 232 260 251 198 185 175 187 170 198 204 215 225 229 234 235 243 250 254 258 261 263 263 262 264 269 271 273 274 274 278 280 282 282 279 278 275 274 274 274 277 282
199 195 193 199 218 196 169 184 193 197 184 180 185 188 208 186 186 166 162 123 131 138 153 181 223 159 163 172 207 239 154 170 178 197 219 230 239 216 218 217 167 179 199 215 221 226 234 238 245 253 261 264 264 264 264 264 265 268 272 274 270 273 276 278 280 281 280 277 276 274 269 271 275 280
191 194 186 191 211 181 175 187 184 189 178 179 197 188 196 172 145 106 98 130 151 157 178 166 202 147 163 163 189 235 205 156 166 207 216 224 225 216 234 239 215 173 197 220 229 238 244 250 253 257 259 262 264 266 267 267 267 267 271 272 270 270 271 274 277 279 278 277 278 278 278 280 279 282
195 187 193 194 203 176 178 182 184 181 176 186 207 180 187 164 129 132 143 146 158 175 180 157 173 147 148 147 172 256 269 104 104 123 314 291 242 209 198 234 237 220 201 203 210 213 219 229 242 251 255 260 262 266 270 269 265 265 270 268 267 266 267 272 277 279 279 281 282 284 286 285 284 285
194 185 190 193 196 173 178 183 182 174 178 184 192 181 177 139 143 151 167 170 167 183 201 171 159 148 163 172 196 35 86 72 4 254 226 239 307 340 278 264 281 257 225 243 229 237 253 268 263 266 272 271 272 271 272 269 264 266 263 260 262 263 267 274 282 288 292 293 294 293 291 288 286 294
175 184 188 190 193 171 176 179 177 174 172 178 177 187 150 147 149 161 173 181 180 174 187 167 149 152 164 173 177 146 145 164 213 216 158 156 3 315 301 292 284 271 261 241 56 332 293 283 280 278 282 280 275 276 267 267 273 263 254 253 253 270 289 294 295 295 296 298 298 297 292 289 291 309
179 189 184 189 187 168 172 173 175 170 165 165 174 172 151 153 155 173 174 186 182 167 182 176 164 169 180 181 172 181 188 194 196 115 151 190 247 239 262 282 257 278 50 29 337 294 286 287 283 274 273 276 294 293 304 315 321 313 300 287 296 296 292 295 296 297 298 300 300 296 294 292 311 309
180 185 181 180 171 164 159 156 141 123 111 101 111 130 126 133 165 178 174 185 177 179 171 179 170 177 182 179 173 181 191 192 146 138 145 216 311 275 282 291 307 47 49 336 302 294 277 275 273 266 268 287 298 313 316 321 318 310 302 305 301 295 295 297 299 299 302 302 299 298 296 312 319 310
173 178 180 147 144 153 150 144 131 121 114 111 106 106 102 89 65 60 136 179 188 181 169 174 198 173 167 180 174 173 156 153 136 153 159 193 240 256 263 244 247 272 16 336 318 285 280 260 249 268 277 292 306 320 316 315 320 314 321 311 302 301 301 301 301 304 304 302 301 300 312 336 324 310
171 171 172 142 160 150 148 147 145 137 121 112 114 108 101 90 95 85 63 53 91 214 169 167 178 158 166 185 183 152 150 130 127 146 172 208 218 223 215 286 340 302 296 323 276 269 275 277 273 310 292 313 332 320 316 318 313 322 314 312 310 307 307 305 306 305 305 305 304 310 338 339 347 315
170 168 175 154 162 153 160 160 155 149 139 137 127 132 133 120 104 98 89 53 30 23 72 89 98 193 125 157 124 124 111 111 129 123 233 332 15 26 344 316 283 278 277 242 247 298 284 275 335 307 301 338 328 313 310 308 311 322 323 319 313 314 312 311 309 306 305 305 310 338 359 25 334 317
168 165 174 160 167 161 169 170 165 157 154 147 145 152 155 145 143 134 132 130 123 287 38 68 75 19 35 88 101 97 90 103 131 120 105 79 33 290 301 292 264 270 269 256 199 241 263 324 349 310 324 330 316 311 307 308 327 331 320 314 314 313 315 316 309 304 304 310 346 23 61 7 336 324
166 163 171 159 168 167 171 172 163 159 153 154 157 159 161 149 140 139 98 111 87 83 91 96 92 78 54 77 90 88 108 118 101 95 120 207 225 238 255 259 256 250 265 240 144 329 331 324 0 308 312 332 318 308 306 311 324 319 313 314 313 319 320 318 309 308 314 346 46 77 39 357 337 328
167 167 170 161 169 167 173 164 160 154 150 162 166 168 164 163 155 156 112 89 104 103 99 102 104 104 90 77 82 84 84 96 97 81 49 306 250 246 265 283 325 300 339 12 49 19 304 325 352 317 304 302 285 285 291 303 316 310 309 308 315 319 318 318 317 323 329 30 96 71 25 0 344 337
173 171 170 165 168 165 166 159 161 155 154 167 169 167 162 165 170 163 141 142 88 106 113 116 119 119 109 94 87 98 108 118 113 117 169 233 2 321 293 277 282 313 323 20 294 360 258 332 336 311 287 294 246 257 285 312 316 314 308 306 317 318 321 326 325 323 344 83 109 71 26 4 351 344
172 172 173 170 162 162 151 159 161 163 163 170 172 165 164 170 178 174 159 165 163 168 142 121 128 85 138 149 159 169 165 150 152 159 187 257 256 257 276 296 323 317 319 319 308 39 306 354 295 297 313 310 289 240 287 321 322 309 311 317 326 319 328 329 326 329 355 114 116 80 29 360 355 349
178 171 172 172 163 146 152 162 165 171 172 168 162 159 170 174 184 172 161 192 180 182 187 178 177 179 174 176 196 178 173 195 191 184 189 200 219 246 263 267 255 245 257 200 9 82 261 284 289 286 250 279 304 301 340 336 317 306 328 337 325 323 332 338 334 335 344 121 111 66 18 12 2 351
175 172 169 173 149 151 159 163 170 173 174 156 155 161 178 193 176 171 161 179 172 177 180 180 173 183 184 187 187 201 193 194 200 199 204 201 203 211 229 257 269 269 281 233 17 18 296 283 280 285 298 292 281 326 318 318 309 318 334 325 314 319 342 342 329 335 334 90 136 119 39 22 2 3
180 174 167 157 158 159 162 167 170 169 170 155 156 180 181 181 178 179 157 161 168 164 168 174 181 180 189 194 196 203 206 204 197 198 205 206 210 215 212 219 235 257 269 283 319 293 285 288 258 284 289 302 304 318 322 323 304 314 317 309 311 316 348 334 333 335 337 340 118 188 37 16 11 1
175 170 157 155 159 162 166 167 166 171 173 155 145 166 163 171 172 166 150 153 168 165 168 178 189 189 187 189 197 203 208 210 195 195 200 202 205 211 216 224 220 230 247 258 255 252 243 260 267 256 272 292 302 315 323 327 314 309 309 315 314 338 340 336 341 337 340 334 73 174 22 8 14 1
167 161 152 157 160 163 164 163 166 171 171 154 143 150 155 159 162 160 160 158 170 176 182 184 189 192 192 191 201 200 204 207 193 191 194 199 198 201 210 218 229 236 244 248 249 241 229 249 271 260 251 275 300 304 308 285 283 298 306 310 327 346 334 348 342 338 337 333 69 43 28 11 360 2
166 148 148 151 156 157 159 162 167 172 173 149 148 155 161 158 163 163 175 169 162 177 192 196 192 197 200 205 209 204 193 201 194 184 193 191 192 196 200 204 213 222 233 252 255 252 244 240 252 258 267 261 265 266 277 272 289 301 316 331 347 340 329 351 344 340 337 333 36 76 51 15 19 0
138 137 147 149 149 152 156 160 164 170 170 155 149 154 163 168 166 171 174 178 164 179 186 191 194 199 207 223 222 218 198 168 184 170 171 170 169 161 180 218 256 249 246 252 254 256 254 245 238 259 270 264 236 270 265 283 302 305 318 355 345 318 337 348 344 341 342 340 356 106 84 50 23 15
128 138 145 157 158 156 160 160 162 157 145 143 144 153 172 177 167 170 179 189 185 186 198 202 202 199 204 206 202 206 193 191 186 141 166 162 194 182 200 206 241 254 248 235 233 232 237 238 227 212 191 224 265 267 272 280 312 308 334 356 354 334 321 339 344 343 343 343 343 88 51 45 23 31
133 138 139 134 133 132 138 143 149 149 157 161 156 163 173 182 177 175 188 209 221 213 198 199 185 197 209 221 204 188 179 177 188 181 194 181 199 199 216 228 245 246 267 270 268 254 245 232 168 164 174 213 262 272 315 15 304 352 349 338 334 315 331 344 343 343 341 342 344 359 75 31 32 20
122 118 132 138 143 151 154 156 161 160 163 172 172 172 178 184 183 186 190 202 211 215 198 202 205 202 183 191 195 213 198 189 186 177 186 190 192 215 213 225 237 262 278 278 269 298 284 194 189 176 187 209 223 217 84 44 348 8 6 327 331 329 332 342 349 340 339 344 350 338 61 44 30 34
134 140 141 149 153 161 165 167 169 169 172 172 178 184 184 186 190 194 204 210 206 205 204 203 199 191 174 198 209 210 201 210 187 183 175 191 189 202 209 210 237 241 245 264 284 273 279 305 236 226 204 262 56 102 126 75 16 356 340 320 335 338 330 341 342 342 342 347 342 342 347 69 26 33
134 141 151 165 171 174 174 174 171 170 171 174 176 181 183 189 190 191 203 210 202 192 200 215 211 176 175 212 224 215 200 199 197 197 194 193 194 194 180 203 251 263 267 261 265 275 286 279 285 339 358 357 99 357 31 74 45 339 343 328 329 358 334 330 340 338 344 342 348 348 338 360 24 6
154 159 163 168 172 173 178 179 171 172 172 174 178 178 180 190 188 187 200 199 201 195 190 197 206 191 187 197 223 211 189 186 208 208 203 196 199 197 186 205 225 243 263 293 291 277 254 248 194 66 350 329 43 7 343 291 247 230 336 298 329 348 310 323 333 337 352 351 346 350 349 348 3 355
158 162 163 163 164 171 182 179 176 175 172 174 178 183 180 185 193 195 193 191 201 201 198 186 189 190 206 205 196 204 219 222 232 217 133 88 118 141 157 302 289 269 265 264 255 256 232 253 84 47 50 48 39 3 284 294 294 256 152 187 300 300 290 327 355 351 346 0 342 350 348 344 349 355
163 164 167 169 170 173 181 182 177 176 177 176 179 181 182 183 190 196 193 196 201 199 196 184 176 180 192 196 194 211 222 216 191 156 135 113 89 26 27 298 288 272 253 270 283 290 253 138 58 60 93 116 74 312 315 301 332 314 175 143 211 261 298 6 4 351 342 350 340 330 348 353 344 9
174 173 173 170 168 174 184 180 178 178 180 177 181 182 182 181 184 188 193 199 199 201 192 180 175 178 179 183 191 196 212 203 171 157 149 151 165 189 228 247 261 264 273 288 318 315 337 48 77 112 129 123 149 231 230 250 266 281 249 189 178 277 309 17 356 349 7 343 323 336 332 319 314 5
183 185 181 175 170 174 181 172 178 181 183 181 177 183 185 191 183 182 186 188 198 195 188 183 168 163 173 170 179 202 205 192 179 170 167 170 184 210 227 231 221 221 221 303 327 304 313 97 139 134 137 175 198 209 207 210 234 289 211 245 230 188 235 57 65 33 333 302 306 11 333 341 341 308
172 177 176 165 180 188 175 179 175 181 183 184 180 184 189 189 184 179 175 179 191 183 178 179 180 162 170 176 180 181 189 192 191 180 172 176 198 212 232 234 259 294 355 305 296 297 286 244 184 181 170 183 211 341 33 10 351 271 315 282 246 227 60 308 172 145 179 276 326 311 338 343 319 327
176 174 171 179 185 180 168 173 182 178 183 183 188 184 186 180 177 166 168 176 181 186 178 176 181 171 167 169 174 166 171 183 180 179 182 187 205 229 218 188 212 255 240 253 258 258 263 118 170 155 177 268 338 360 305 215 272 283 264 288 327 155 86 1 3 182 160 181 76 355 315 328 360 346
173 173 167 182 174 180 176 184 181 173 183 177 181 181 183 164 160 167 182 180 178 178 183 179 170 167 169 165 168 171 172 182 174 179 186 198 208 222 211 200 198 218 219 231 246 253 268 192 193 190 187 42 283 155 257 264 269 128 346 330 311 118 297 307 267 358 359 313 273 198 198 271 19 345
170 166 174 191 170 180 187 169 176 180 166 168 174 176 168 160 165 177 186 183 172 164 174 175 167 160 164 165 167 167 170 172 178 183 199 204 206 205 197 207 209 213 221 221 231 240 254 251 215 121 311 243 234 320 290 324 321 215 266 255 309 347 218 273 305 323 324 312 282 264 266 258 243 267
178 175 175 180 170 174 169 147 162 171 162 168 171 171 164 168 177 182 180 170 165 152 148 155 159 162 155 155 155 167 181 177 179 193 196 205 207 190 182 199 236 263 264 253 249 285 278 243 266 152 146 177 177 177 278 294 244 243 266 312 301 300 207 201 265 279 260 285 260 245 248 257 269 277